When you browse on this site, cookies collect data to enhance your experience and personalize the content and advertising you see.
Visit our Privacy Policy to learn more. By continuing to use the site, you agree to this use of cookies and data.
  • In Czech Republic
  • List of Countries
  • For 7 days
  • Water Temperature
  • Satellite Maps
  • Weather Map
  • Weather Widgets
  • user-avatar
    Login

    Hourly Weather Shanghai

    Today, 21 March, Thursday

    Time Temperature Precipitation Wind Pressure Humidity
    00:00 +19°C° 0 mm 3 mps 756 mmHg 85%
    01:00 +19°C° 0 mm 3 mps 756 mmHg 84%
    02:00 +18°C° 0 mm 4 mps 756 mmHg 82%
    03:00 +17°C° 0 mm 3 mps 757 mmHg 81%
    04:00 +17°C° 0 mm 3 mps 757 mmHg 80%
    05:00 +16°C° 0 mm 3 mps 757 mmHg 79%
    06:00 +16°C° 0 mm 3 mps 758 mmHg 76%
    07:00 +16°C° 0 mm 2 mps 758 mmHg 73%
    08:00 +16°C° 0 mm 2 mps 759 mmHg 69%
    09:00 +16°C° 0.2 mm 3 mps 759 mmHg 68%
    10:00 +16°C° 0.2 mm 3 mps 760 mmHg 66%
    11:00 +16°C° 0.2 mm 3 mps 760 mmHg 65%
    12:00 +14°C° 1.4 mm 4 mps 761 mmHg 69%
    13:00 +13°C° 1.4 mm 5 mps 761 mmHg 73%
    14:00 +12°C° 1.4 mm 5 mps 761 mmHg 77%
    15:00 +12°C° 1.8 mm 5 mps 761 mmHg 78%
    16:00 +10°C° 1.8 mm 6 mps 762 mmHg 79%
    17:00 +9°C° 1.8 mm 6 mps 762 mmHg 81%
    18:00 +9°C° 0.1 mm 6 mps 763 mmHg 79%
    19:00 +9°C° 0.1 mm 5 mps 763 mmHg 78%
    20:00 +9°C° 0.1 mm 5 mps 764 mmHg 76%
    21:00 +8°C° 0 mm 5 mps 764 mmHg 76%
    22:00 +8°C° 0 mm 6 mps 764 mmHg 75%
    23:00 +8°C° 0 mm 6 mps 764 mmHg 75%

    Tomorrow, 22 March, Friday

    Time Temperature Precipitation Wind Pressure Humidity
    00:00 +8°C° 0 mm 5 mps 765 mmHg 73%
    01:00 +8°C° 0 mm 5 mps 765 mmHg 70%
    02:00 +8°C° 0 mm 5 mps 765 mmHg 68%
    03:00 +7°C° 0 mm 5 mps 765 mmHg 68%
    04:00 +7°C° 0 mm 5 mps 765 mmHg 68%
    05:00 +7°C° 0 mm 5 mps 765 mmHg 68%
    06:00 +7°C° 0 mm 5 mps 766 mmHg 68%
    07:00 +7°C° 0 mm 4 mps 766 mmHg 67%
    08:00 +7°C° 0 mm 4 mps 766 mmHg 67%
    09:00 +8°C° 0 mm 4 mps 767 mmHg 64%
    10:00 +8°C° 0 mm 4 mps 767 mmHg 61%
    11:00 +10°C° 0 mm 4 mps 767 mmHg 59%
    12:00 +10°C° 0 mm 4 mps 767 mmHg 57%
    13:00 +11°C° 0 mm 4 mps 766 mmHg 56%
    14:00 +11°C° 0 mm 4 mps 766 mmHg 55%
    15:00 +10°C° 0 mm 4 mps 766 mmHg 56%
    16:00 +9°C° 0 mm 5 mps 766 mmHg 57%
    17:00 +8°C° 0 mm 5 mps 766 mmHg 58%
    18:00 +8°C° 0 mm 4 mps 766 mmHg 58%
    19:00 +8°C° 0 mm 4 mps 767 mmHg 59%
    20:00 +8°C° 0 mm 3 mps 768 mmHg 60%
    21:00 +8°C° 0 mm 3 mps 768 mmHg 60%
    22:00 +8°C° 0 mm 3 mps 768 mmHg 60%
    23:00 +8°C° 0 mm 3 mps 769 mmHg 60%

    Day after tomorrow, 23 March, Saturday

    Time Temperature Precipitation Wind Pressure Humidity
    00:00 +8°C° 0 mm 2 mps 768 mmHg 60%
    01:00 +8°C° 0 mm 2 mps 768 mmHg 60%
    02:00 +8°C° 0 mm 2 mps 768 mmHg 59%
    03:00 +8°C° 0 mm 2 mps 768 mmHg 59%
    04:00 +8°C° 0 mm 2 mps 768 mmHg 59%
    05:00 +9°C° 0 mm 1 mps 768 mmHg 59%
    06:00 +10°C° 0 mm 1 mps 769 mmHg 57%
    07:00 +10°C° 0 mm 1 mps 769 mmHg 54%
    08:00 +11°C° 0 mm 1 mps 769 mmHg 51%
    09:00 +12°C° 0 mm 1 mps 770 mmHg 43%
    10:00 +14°C° 0 mm 1 mps 770 mmHg 36%
    11:00 +16°C° 0 mm 2 mps 770 mmHg 28%
    12:00 +16°C° 0 mm 2 mps 770 mmHg 27%
    13:00 +17°C° 0 mm 3 mps 769 mmHg 25%
    14:00 +17°C° 0 mm 3 mps 769 mmHg 24%
    15:00 +17°C° 0 mm 3 mps 769 mmHg 28%
    16:00 +16°C° 0 mm 3 mps 768 mmHg 32%
    17:00 +15°C° 0 mm 4 mps 768 mmHg 37%
    18:00 +13°C° 0 mm 4 mps 769 mmHg 43%
    19:00 +11°C° 0 mm 4 mps 769 mmHg 49%
    20:00 +10°C° 0 mm 4 mps 769 mmHg 56%
    21:00 +9°C° 0 mm 3 mps 770 mmHg 57%
    22:00 +9°C° 0 mm 3 mps 770 mmHg 58%
    23:00 +8°C° 0 mm 3 mps 770 mmHg 59%

    24 March, Sunday

    Time Temperature Precipitation Wind Pressure Humidity
    00:00 +8°C° 0 mm 2 mps 769 mmHg 60%
    01:00 +8°C° 0 mm 2 mps 769 mmHg 60%
    02:00 +8°C° 0 mm 2 mps 769 mmHg 61%
    03:00 +7°C° 0 mm 2 mps 769 mmHg 60%
    04:00 +7°C° 0 mm 2 mps 768 mmHg 60%
    05:00 +7°C° 0 mm 2 mps 768 mmHg 60%
    06:00 +8°C° 0 mm 2 mps 768 mmHg 57%
    07:00 +9°C° 0 mm 2 mps 769 mmHg 54%
    08:00 +9°C° 0 mm 2 mps 769 mmHg 52%
    09:00 +11°C° 0 mm 3 mps 769 mmHg 48%
    10:00 +12°C° 0 mm 3 mps 768 mmHg 44%
    11:00 +13°C° 0 mm 3 mps 768 mmHg 39%
    12:00 +13°C° 0 mm 3 mps 767 mmHg 41%
    13:00 +13°C° 0 mm 3 mps 767 mmHg 43%
    14:00 +13°C° 0 mm 3 mps 766 mmHg 44%
    15:00 +12°C° 0 mm 3 mps 765 mmHg 47%
    16:00 +12°C° 0 mm 3 mps 765 mmHg 51%
    17:00 +11°C° 0 mm 4 mps 765 mmHg 54%
    18:00 +11°C° 0.1 mm 4 mps 765 mmHg 57%
    19:00 +10°C° 0.1 mm 3 mps 765 mmHg 60%
    20:00 +10°C° 0.1 mm 3 mps 765 mmHg 63%
    21:00 +10°C° 0.2 mm 3 mps 765 mmHg 68%
    22:00 +10°C° 0.2 mm 3 mps 765 mmHg 72%
    23:00 +10°C° 0.2 mm 3 mps 765 mmHg 77%

    25 March, Monday

    Time Temperature Precipitation Wind Pressure Humidity
    00:00 +9°C° 0.7 mm 3 mps 764 mmHg 80%
    01:00 +9°C° 0.7 mm 3 mps 764 mmHg 83%
    02:00 +9°C° 0.7 mm 3 mps 763 mmHg 86%
    03:00 +9°C° 0.2 mm 3 mps 763 mmHg 86%
    04:00 +10°C° 0.2 mm 3 mps 763 mmHg 86%
    05:00 +10°C° 0.2 mm 3 mps 762 mmHg 86%
    06:00 +10°C° 0.2 mm 3 mps 763 mmHg 87%
    07:00 +10°C° 0.2 mm 3 mps 763 mmHg 87%
    08:00 +10°C° 0.2 mm 2 mps 763 mmHg 88%
    09:00 +12°C° 0.2 mm 2 mps 763 mmHg 86%
    10:00 +12°C° 0.2 mm 2 mps 763 mmHg 85%
    11:00 +13°C° 0.2 mm 2 mps 763 mmHg 83%
    12:00 +13°C° 0.1 mm 1 mps 763 mmHg 81%
    13:00 +14°C° 0.1 mm 1 mps 762 mmHg 79%
    14:00 +14°C° 0.1 mm 1 mps 762 mmHg 77%
    15:00 +14°C° 0 mm 1 mps 762 mmHg 78%
    16:00 +14°C° 0 mm 1 mps 762 mmHg 78%
    17:00 +14°C° 0 mm 1 mps 762 mmHg 78%
    18:00 +14°C° 0 mm 1 mps 763 mmHg 80%
    19:00 +13°C° 0 mm 1 mps 763 mmHg 82%
    20:00 +12°C° 0 mm 0 mps 764 mmHg 84%
    21:00 +11°C° 0 mm 0 mps 764 mmHg 85%
    22:00 +11°C° 0 mm 0 mps 764 mmHg 86%
    23:00 +10°C° 0 mm 0 mps 764 mmHg 86%

    26 March, Tuesday

    Time Temperature Precipitation Wind Pressure Humidity
    00:00 +10°C° 0 mm 0 mps 764 mmHg 86%
    01:00 +11°C° 0 mm 1 mps 764 mmHg 86%
    02:00 +11°C° 0 mm 1 mps 764 mmHg 85%
    03:00 +11°C° 0 mm 1 mps 764 mmHg 85%
    04:00 +10°C° 0 mm 1 mps 764 mmHg 85%
    05:00 +10°C° 0 mm 1 mps 764 mmHg 85%
    06:00 +11°C° 0 mm 1 mps 765 mmHg 80%
    07:00 +13°C° 0 mm 1 mps 765 mmHg 76%
    08:00 +14°C° 0 mm 1 mps 766 mmHg 72%
    09:00 +16°C° 0 mm 1 mps 766 mmHg 63%
    10:00 +19°C° 0 mm 1 mps 766 mmHg 54%
    11:00 +21°C° 0 mm 1 mps 766 mmHg 45%
    12:00 +22°C° 0 mm 1 mps 765 mmHg 43%
    13:00 +21°C° 0 mm 2 mps 765 mmHg 40%
    14:00 +23°C° 0 mm 2 mps 764 mmHg 38%
    15:00 +21°C° 0 mm 3 mps 764 mmHg 40%
    16:00 +21°C° 0 mm 3 mps 764 mmHg 42%
    17:00 +20°C° 0 mm 4 mps 764 mmHg 44%
    18:00 +18°C° 0 mm 4 mps 764 mmHg 46%
    19:00 +17°C° 0 mm 4 mps 765 mmHg 48%
    20:00 +14°C° 0 mm 4 mps 765 mmHg 50%
    21:00 +14°C° 0 mm 4 mps 765 mmHg 53%
    22:00 +14°C° 0 mm 4 mps 765 mmHg 55%
    23:00 +13°C° 0 mm 4 mps 765 mmHg 58%
    Show more